TimeEST,TemperatureF,Dew PointF,Humidity,Sea Level PressureIn,VisibilityMPH,Wind Direction,Wind SpeedMPH,Gust SpeedMPH,PrecipitationIn,Events,Conditions,WindDirDegrees,DateUTC
12:45 AM,33.8,24.8,70,30.24,10.0,NNE,5.8,-,N/A,,Clear,20,2013-03-09 05:45:00
2:50 AM,32.0,24.8,75,30.23,10.0,NE,5.8,-,N/A,,Clear,40,2013-03-09 07:50:00
4:45 AM,24.8,23.0,93,30.26,10.0,Variable,5.8,-,N/A,,Clear,0,2013-03-09 09:45:00
5:50 AM,23.0,21.2,93,30.27,20.0,Calm,Calm,-,N/A,,Clear,0,2013-03-09 10:50:00
6:45 AM,26.6,23.0,86,30.28,15.0,Calm,Calm,-,N/A,,Clear,0,2013-03-09 11:45:00
7:45 AM,32.0,23.0,69,30.29,15.0,Calm,Calm,-,N/A,,Clear,0,2013-03-09 12:45:00
8:45 AM,37.4,23.0,56,30.30,15.0,Calm,Calm,-,N/A,,Clear,0,2013-03-09 13:45:00
9:45 AM,39.2,23.0,52,30.30,15.0,Calm,Calm,-,N/A,,Clear,0,2013-03-09 14:45:00
10:45 AM,41.0,24.8,53,30.29,15.0,North,6.9,-,N/A,,Clear,350,2013-03-09 15:45:00
11:45 AM,42.8,24.8,49,30.29,20.0,North,6.9,-,N/A,,Clear,350,2013-03-09 16:45:00
12:45 PM,46.4,24.8,43,30.27,20.0,North,9.2,-,N/A,,Clear,360,2013-03-09 17:45:00
1:45 PM,46.4,24.8,43,30.25,20.0,Variable,4.6,-,N/A,,Clear,0,2013-03-09 18:45:00
2:45 PM,50.0,23.0,35,30.25,20.0,Calm,Calm,-,N/A,,Clear,0,2013-03-09 19:45:00
3:45 PM,51.8,23.0,33,30.26,20.0,Calm,Calm,-,N/A,,Clear,0,2013-03-09 20:45:00
4:45 PM,51.8,21.2,30,30.26,20.0,East,6.9,-,N/A,,Clear,80,2013-03-09 21:45:00
5:45 PM,48.2,21.2,34,30.27,20.0,NE,8.1,-,N/A,,Clear,50,2013-03-09 22:45:00
6:45 PM,44.6,21.2,39,30.29,10.0,ENE,6.9,-,N/A,,Clear,70,2013-03-09 23:45:00
7:45 PM,42.8,21.2,42,30.30,10.0,ENE,6.9,-,N/A,,Clear,70,2013-03-10 00:45:00
8:45 PM,35.6,24.8,65,30.31,10.0,Calm,Calm,-,N/A,,Clear,0,2013-03-10 01:45:00
9:45 PM,30.2,24.8,80,30.31,10.0,Calm,Calm,-,N/A,,Clear,0,2013-03-10 02:45:00
10:45 PM,30.2,24.8,80,30.32,10.0,Calm,Calm,-,N/A,,Clear,0,2013-03-10 03:45:00
11:45 PM,26.6,23.0,86,30.32,10.0,Calm,Calm,-,N/A,,Clear,0,2013-03-10 04:45:00